User: anonymous   Login
Location: Gipe Farm
(40.9466°N, 95.5370°W)
Time: 15:46:52
(UTC-05:00)
Language:

Cosmos 2082 Rocket - Orbit

View from above orbital plane
View from above orbital plane
View from above satellite
View from above satellite

Ground track
Ground track

The orbit data is extracted from the following two-line orbital elements,

1 20625U 90046B   15090.35706345  .00000111  00000-0  82477-4 0  9997
2 20625 071.0007 046.6432 0016607 258.1347 259.2536 14.14571953283451
Epoch (UTC): 31 March 2015 08:34:10
Eccentricity: 0.0016607
inclination: 71.0007°
perigee height: 832 km
apogee height: 856 km
right ascension of ascending node: 46.6432°
argument of perigee: 258.1347°
revolutions per day: 14.14571953
mean anomaly at epoch: 259.2536°
orbit number at epoch: 28345

The dashed part of the orbit path shows where the satellite is in the earth's shadow,  

DLR